Location: Raitis
(47.2167°N, 11.3833°E)
Time: 17:30:46
(UTC+00:00)

Resurs 1-3 - Pass Details

Date: 03 March 2021
Orbit: 629 x 633 km, 97.9° (Epoch: 20 April)

Event Time Altitude Azimuth Distance (km) Brightness Sun altitude
Exits shadow 19:38:45 64° 305° (NW) 706 3.9 -26.9°
Drops below altitude 10° 19:42:40 10° 343° (NNW) 2,028 6.6 -27.5°
Sets 19:44:54 0° 345° (NNW) 2,941 7.5 -27.8°
